Naples, Italy

8:57 PM CEST on October 19, 2017 (GMT +0200)
Capodichino Mil

Weather History for LIRN - February, 2012

Change the Weather History Date:

Wednesday, February 8, 2012

  Actual Average Record
Temperature  
Mean Temperature 42 °F -  
Max Temperature 46 °F 57 °F 68 °F (2001)
Min Temperature 39 °F 41 °F 26 °F (2003)
Degree Days  
Heating Degree Days 22    
Moisture  
Dew Point 30 °F    
Average Humidity 62    
Maximum Humidity 70    
Minimum Humidity 57    
Precipitation  
Precipitation 0.00 in 0.12 in - ()
Sea Level Pressure  
Sea Level Pressure 29.91 in    
Wind  
Wind Speed 11 mph ()    
Max Wind Speed 17 mph    
Max Gust Speed 29 mph    
Visibility 6.2 miles    
Events      
Averages and records for this station are not official NWS values.
T = Trace of Precipitation, MM = Missing Value Source: Averaged Metar Reports

Daily Weather History Graph

Daily Weather History Graph

Search for Another Location

Airport or City:

Trip Planner

Search our weather history database for the weather conditions in past years. The results will help you decide how hot, cold, wet, or windy it might be!

Date:

Astronomy

Feb. 08, 2012 Rise Set
Actual Time 7:06 AM CET 5:27 PM CET
Civil Twilight 6:37 AM CET 5:56 PM CET
Nautical Twilight 6:05 AM CET 6:29 PM CET
Astronomical Twilight 5:33 AM CET 7:01 PM CET
Moon 6:28 PM CET (2/8) 6:59 AM CET (2/8)
Length of Visible Light 11h 18m
Length of Day
10h 21m
Full, 100% of the Moon is Illuminated
Feb 8
Full
Feb 14
Last Quarter
Feb 21
New
Mar 1
First Quarter
Mar 8
Full

Hourly Weather History & Observations

Time (CET) Temp. Windchill Dew Point Humidity Pressure Visibility Wind Dir Wind Speed Gust Speed Precip Events Conditions
12:20 AM 39.2 °F 32.0 °F 28.4 °F 65% 29.77 in 6.2 mi NE 11.5 mph - N/A   Scattered Clouds
12:50 AM 41.0 °F 34.7 °F 28.4 °F 61% 29.77 in 6.2 mi NNE 10.4 mph - N/A   Scattered Clouds
1:20 AM 39.2 °F 32.5 °F 28.4 °F 65% 29.77 in 6.2 mi NNE 10.4 mph - N/A   Mostly Cloudy
1:50 AM 39.2 °F 33.0 °F 28.4 °F 65% 29.80 in 6.2 mi NNE 9.2 mph - N/A   Mostly Cloudy
2:20 AM 39.2 °F 33.0 °F 28.4 °F 65% 29.80 in 6.2 mi North 9.2 mph - N/A   Mostly Cloudy
2:50 AM 39.2 °F 33.6 °F 28.4 °F 65% 29.80 in 6.2 mi North 8.1 mph - N/A   Mostly Cloudy
3:20 AM 39.2 °F 33.0 °F 30.2 °F 70% 29.80 in 6.2 mi NNE 9.2 mph - N/A   Mostly Cloudy
3:50 AM 39.2 °F 32.0 °F 30.2 °F 70% 29.80 in 6.2 mi NE 11.5 mph - N/A   Mostly Cloudy
4:20 AM 39.2 °F 33.0 °F 30.2 °F 70% 29.80 in 6.2 mi NE 9.2 mph - N/A   Mostly Cloudy
4:50 AM 39.2 °F 32.5 °F 30.2 °F 70% 29.83 in 6.2 mi NNE 10.4 mph - N/A   Mostly Cloudy
5:20 AM 41.0 °F 33.9 °F 30.2 °F 65% 29.83 in 6.2 mi NE 12.7 mph - N/A   Mostly Cloudy
5:50 AM 41.0 °F 34.3 °F 30.2 °F 65% 29.83 in 6.2 mi NE 11.5 mph - N/A   Mostly Cloudy
6:20 AM 41.0 °F 34.7 °F 30.2 °F 65% 29.86 in 6.2 mi NE 10.4 mph - N/A   Mostly Cloudy
6:50 AM 41.0 °F 34.7 °F 30.2 °F 65% 29.86 in 6.2 mi NE 10.4 mph - N/A   Scattered Clouds
7:20 AM 41.0 °F 35.8 °F 30.2 °F 65% 29.86 in 6.2 mi NNE 8.1 mph - N/A   Mostly Cloudy
7:50 AM 41.0 °F 33.1 °F 30.2 °F 65% 29.86 in 6.2 mi ENE 15.0 mph - N/A   Overcast
8:20 AM 41.0 °F 33.5 °F 32.0 °F 70% 29.86 in 6.2 mi NE 13.8 mph - N/A   Overcast
8:50 AM 42.8 °F 36.2 °F 32.0 °F 66% 29.89 in 6.2 mi NE 12.7 mph - N/A   Overcast
9:20 AM 42.8 °F 36.2 °F 32.0 °F 66% 29.89 in 6.2 mi NE 12.7 mph - N/A   Overcast
9:50 AM 44.6 °F 38.4 °F 32.0 °F 61% 29.89 in 6.2 mi NE 12.7 mph - N/A   Mostly Cloudy
10:20 AM 44.6 °F 38.1 °F 32.0 °F 61% 29.89 in 6.2 mi NE 13.8 mph - N/A   Mostly Cloudy
10:50 AM 46.4 °F 40.4 °F 32.0 °F 57% 29.92 in 6.2 mi NE 13.8 mph - N/A   Mostly Cloudy
11:20 AM 44.6 °F 37.2 °F 32.0 °F 61% 29.92 in 6.2 mi ENE 17.3 mph - N/A   Mostly Cloudy
11:50 AM 44.6 °F 38.1 °F 32.0 °F 61% 29.92 in 6.2 mi NE 13.8 mph - N/A   Scattered Clouds
12:20 PM 44.6 °F 37.4 °F 32.0 °F 61% 29.92 in 6.2 mi ENE 16.1 mph - N/A   Scattered Clouds
12:50 PM 44.6 °F 38.4 °F 32.0 °F 61% 29.92 in 6.2 mi ENE 12.7 mph - N/A   Scattered Clouds
1:20 PM 44.6 °F 37.2 °F 32.0 °F 61% 29.92 in 6.2 mi ENE 17.3 mph - N/A   Mostly Cloudy
1:50 PM 44.6 °F 37.4 °F 32.0 °F 61% 29.92 in 6.2 mi NE 16.1 mph 28.8 mph N/A   Mostly Cloudy
2:20 PM 44.6 °F 39.2 °F 32.0 °F 61% 29.95 in 6.2 mi NE 10.4 mph - N/A   Mostly Cloudy
2:50 PM 44.6 °F 37.2 °F 32.0 °F 61% 29.95 in 6.2 mi NE 17.3 mph - N/A   Mostly Cloudy
3:20 PM 44.6 °F 38.8 °F 32.0 °F 61% 29.95 in 6.2 mi ENE 11.5 mph - N/A   Mostly Cloudy
3:50 PM 44.6 °F 38.4 °F 30.2 °F 57% 29.95 in 6.2 mi ENE 12.7 mph - N/A   Mostly Cloudy
4:20 PM 44.6 °F 38.1 °F 30.2 °F 57% 29.95 in 6.2 mi ENE 13.8 mph - N/A   Mostly Cloudy
4:50 PM 44.6 °F 37.8 °F 30.2 °F 57% 29.95 in 6.2 mi ENE 15.0 mph - N/A   Mostly Cloudy
5:20 PM 42.8 °F 35.1 °F 28.4 °F 57% 29.98 in 6.2 mi ENE 16.1 mph - N/A   Mostly Cloudy
5:50 PM 42.8 °F 35.8 °F 28.4 °F 57% 29.98 in 6.2 mi ENE 13.8 mph - N/A   Scattered Clouds
6:20 PM 42.8 °F 35.8 °F 28.4 °F 57% 29.98 in 6.2 mi ENE 13.8 mph - N/A   Scattered Clouds
6:50 PM 42.8 °F 36.6 °F 28.4 °F 57% 29.98 in 6.2 mi ENE 11.5 mph - N/A   Scattered Clouds
7:20 PM 42.8 °F 36.6 °F 30.2 °F 61% 30.01 in 6.2 mi ENE 11.5 mph - N/A   Mostly Cloudy
7:50 PM 42.8 °F 36.6 °F 28.4 °F 57% 30.01 in 6.2 mi ENE 11.5 mph - N/A   Mostly Cloudy
8:20 PM 42.8 °F 35.8 °F 28.4 °F 57% 30.01 in 6.2 mi ENE 13.8 mph - N/A   Mostly Cloudy
8:50 PM 41.0 °F 34.3 °F 30.2 °F 65% 30.01 in - NE 11.5 mph - N/A   Clear
9:20 PM 41.0 °F 35.2 °F 28.4 °F 61% 30.01 in - NE 9.2 mph - N/A   Clear
9:50 PM 41.0 °F 34.3 °F 28.4 °F 61% 30.04 in - NE 11.5 mph - N/A   Clear
10:20 PM 41.0 °F 34.7 °F 28.4 °F 61% 30.04 in 6.2 mi NE 10.4 mph - N/A   Scattered Clouds
10:50 PM 41.0 °F 36.4 °F 28.4 °F 61% 30.04 in 6.2 mi NNE 6.9 mph - N/A   Scattered Clouds
11:20 PM 41.0 °F 35.8 °F 28.4 °F 61% 30.04 in 6.2 mi NNE 8.1 mph - N/A   Scattered Clouds
11:50 PM 41.0 °F 36.4 °F 28.4 °F 61% 30.04 in 6.2 mi NNE 6.9 mph - N/A   Scattered Clouds